Location: La Bastide
(43.1661°N, 1.2755°E)
Time: 15:33:07
(UTC+00:00)

COSMOS 2455 - Pass Details

Date: 13 December 2025
Orbit: 898 x 910 km, 67.1° (Epoch: 19 January)

Event Time Altitude Azimuth Distance (km) Brightness Sun altitude
Rises 19:13:11 0° 222° (SW) 3,517 6.5 -30.6°
Reaches altitude 10° 19:15:44 10° 226° (SW) 2,581 5.8 -31.1°
Maximum altitude 19:21:37 57° 305° (NW) 1,061 3.3 -32.2°
Enters shadow 19:21:46 57° 311° (NW) 1,063 3.3 -32.2°
